Location: Maccacari
(45.1333°N, 11.1333°E)
Time: 13:53:00
(UTC+00:00)

SR - Pass Details

Date: 22 June 2021
Orbit: 577 x 878 km, 66.7° (Epoch: 24 July)

Event Time Altitude Azimuth Distance (km) Brightness Sun altitude
Rises 21:47:37 0° 333° (NNW) 3,350 ? -18.4°
Reaches altitude 10° 21:51:02 10° 353° (N) 2,357 ? -18.7°
Maximum altitude 21:54:30 17° 33° (NNE) 1,850 ? -18.9°
Drops below altitude 10° 21:57:48 10° 74° (ENE) 2,220 ? -19.1°
Enters shadow 22:00:12 - 91° (E) 2,865 ? -19.2°
